7 * 24
多渠道服务支持
NAVSTAR 24(USA 79)是美国于1992年2月23日发射的GPS导航卫星,隶属于NAVSTAR全球定位系统。该卫星运行在约2万公里的中地球轨道,为全球提供精准的定位、导航与授时服务,帮助提升GPS星座的覆盖范围与服务稳定性,在民用导航、军事定位等领域发挥了重要作用,是美国第二代GPS卫星组网过程中的重要组成部分。
美国
(US)
| 数据来源 | 国际轨道数据 |
| 星历时间: | 2026-09-08T09:56:40+0800 3天前 查看轨道信息 |
| 半长轴: | 27360.651km |
| 偏心率: | 0.0053753 |
| 轨道倾角: | 54.227° |
| 近地点辐角 | 62.281° |
| 升交点赤经 | 163.214° |
| 平近点角 | 88.168° |
| 近地点: | 20835.442km |
| 远地点: | 21129.586km |
| 周期: | 750.671分钟 |
| 每日圈数: | 1.918285 |